Location: Pardubice
(50.0330°N, 15.7830°E)
Time: 10:16:03
(UTC+02:00)

Tiros 1 - All Passes

Search period start: 07 October 2024 00:00
Search period end: 17 October 2024 00:00
Orbit: 623 x 655 km, 48.4° (Epoch: 06 October)

Date Brightness Start Highest point End Pass type
(mag) Time Alt. Az. Time Alt. Az. Time Alt. Az.
07 Oct - 08:27:43 10° SW 08:31:52 33° SSE 08:36:00 10° E daylight
07 Oct - 10:08:54 10° WSW 10:13:30 68° S 10:18:04 10° E daylight
07 Oct - 11:50:48 10° W 11:55:23 66° S 11:59:56 10° ESE daylight
07 Oct - 13:32:57 10° W 13:36:58 30° SSW 13:40:58 10° SSE daylight
08 Oct - 07:10:33 10° S 07:13:40 18° SE 07:16:48 10° E daylight
08 Oct - 08:50:30 10° SW 08:54:59 49° SSE 08:59:27 10° E daylight
08 Oct - 10:32:10 10° W 10:36:48 74° S 10:41:23 10° E daylight
08 Oct - 12:14:09 10° W 12:18:37 50° SSW 12:23:02 10° SE daylight
08 Oct - 13:56:46 10° W 13:59:55 18° SW 14:03:02 10° S daylight
09 Oct - 07:32:34 10° SSW 07:36:37 30° SSE 07:40:38 10° E daylight
09 Oct - 09:13:36 10° WSW 09:18:12 65° S 09:22:46 10° E daylight
09 Oct - 10:55:29 10° W 11:00:05 68° S 11:04:39 10° ESE daylight
09 Oct - 12:37:34 10° W 12:41:43 34° SSW 12:45:51 10° SE daylight
10 Oct - 06:15:39 10° S 06:18:27 16° SE 06:21:14 10° ESE visible
10 Oct - 07:55:15 10° SW 07:59:41 45° SSE 08:04:06 10° E daylight
10 Oct - 09:36:50 10° W 09:41:28 73° S 09:46:04 10° E daylight
10 Oct - 11:18:48 10° W 11:23:19 54° SSW 11:27:47 10° ESE daylight
10 Oct - 13:01:16 10° W 13:04:41 21° SW 13:08:05 10° SSE daylight
11 Oct - 06:37:25 10° SSW 06:41:20 27° SSE 06:45:15 10° E visible
11 Oct - 08:18:16 10° WSW 08:22:51 62° SSE 08:27:26 10° E daylight
11 Oct - 10:00:07 10° W 10:04:44 71° S 10:09:19 10° ESE daylight
11 Oct - 11:42:10 10° W 11:46:25 37° SSW 11:50:38 10° SE daylight
11 Oct - 13:26:07 10° WSW 13:27:29 11° SW 13:28:50 10° SSW daylight
12 Oct - 05:20:48 10° SSE 05:23:11 14° SE 05:25:33 10° ESE visible
12 Oct - 06:59:58 10° SW 07:04:21 42° SSE 07:08:44 10° E daylight
12 Oct - 08:41:27 10° W 08:46:07 73° S 08:50:42 10° E daylight
12 Oct - 10:23:24 10° W 10:27:58 58° SSW 10:32:28 10° ESE daylight
12 Oct - 12:05:45 10° W 12:09:24 23° SW 12:13:02 10° SSE daylight
13 Oct - 05:42:14 10° SSW 05:46:01 24° SE 05:49:46 10° E visible
13 Oct - 07:22:53 10° WSW 07:27:29 59° SSE 07:32:03 10° E daylight
13 Oct - 09:04:43 10° W 09:09:21 72° S 09:13:57 10° E daylight
13 Oct - 10:46:45 10° W 10:51:05 41° SSW 10:55:23 10° SE daylight
13 Oct - 12:30:04 10° WSW 12:32:13 13° SW 12:34:20 10° SSW daylight
14 Oct - 04:26:07 10° SSE 04:27:53 12° SE 04:29:39 10° ESE visible
14 Oct - 06:04:38 10° SW 06:08:59 38° SSE 06:13:18 10° E visible
14 Oct - 07:46:02 10° WSW 07:50:42 71° S 07:55:18 10° E daylight
14 Oct - 09:27:58 10° W 09:32:34 61° SSW 09:37:07 10° ESE daylight
14 Oct - 11:10:14 10° W 11:14:04 26° SSW 11:17:53 10° SSE daylight
15 Oct - 04:47:05 10° SSW 04:50:40 22° SE 04:54:13 10° E visible
15 Oct - 06:27:29 10° WSW 06:32:04 55° SSE 06:36:37 10° E visible
15 Oct - 08:09:16 10° W 08:13:56 73° S 08:18:32 10° E daylight
15 Oct - 09:51:16 10° W 09:55:41 45° SSW 10:00:04 10° SE daylight
15 Oct - 11:34:14 10° WSW 11:36:54 15° SW 11:39:32 10° S daylight
16 Oct - 03:32:00 10° SE 03:32:33 10° SE 03:33:07 10° SE visible
16 Oct - 05:09:19 10° SW 05:13:34 35° SSE 05:17:49 10° E visible
16 Oct - 06:50:35 10° WSW 06:55:15 69° S 06:59:52 10° E visible
16 Oct - 08:32:30 10° W 08:37:07 65° SSW 08:41:42 10° ESE daylight
16 Oct - 10:14:41 10° W 10:18:41 29° SSW 10:22:40 10° SSE daylight
